Weather History for KCID - October, 2011

Change the Weather History Date:

Friday, October 21, 2011

  Actual Average Record
Temperature  
Mean Temperature 42 °F 49 °F  
Max Temperature 59 °F 60 °F 85 °F (1947)
Min Temperature 25 °F 38 °F 17 °F (1930)
Degree Days  
Heating Degree Days 23 16  
Month to date heating degree days 189 272  
Since 1 July heating degree days 393 429  
Cooling Degree Days 0 0  
Month to date cooling degree days 20 8  
Year to date cooling degree days 887 748  
Moisture  
Dew Point 28 °F    
Average Humidity 61    
Maximum Humidity 92    
Minimum Humidity 30    
Precipitation  
Precipitation 0.00 in 0.08 in 0.64 in (2006)
Month to date precipitation 1.53 1.80  
Year to date precipitation 24.50 30.26  
Sea Level Pressure  
Sea Level Pressure 30.07 in    
Wind  
Wind Speed 6 mph (WSW)    
Max Wind Speed 13 mph    
Max Gust Speed 17 mph    
Visibility 9 miles    
Events      
T = Trace of Precipitation, MM = Missing Value Source: NWS Daily Summary

Daily Weather History Graph

Daily Weather History Graph

Search for Another Location

Airport or City:

Trip Planner

Search our weather history database for the weather conditions in past years. The results will help you decide how hot, cold, wet, or windy it might be!

Date:

Astronomy

Oct. 21, 2011 Rise Set
Actual Time 7:25 AM CDT 6:16 PM CDT
Civil Twilight 6:57 AM CDT 6:44 PM CDT
Nautical Twilight 6:24 AM CDT 7:17 PM CDT
Astronomical Twilight 5:52 AM CDT 7:49 PM CDT
Moon 1:10 AM CDT (10/21) 3:05 PM CDT (10/21)
Length of Visible Light 11h 47m
Length of Day
10h 50m
Waning Crescent, 33% of the Moon is Illuminated
Oct 21
Waning Crescent
Oct 26
New
Nov 2
First Quarter
Nov 10
Full
Nov 18
Last Quarter

Hourly Weather History & Observations

Time (CDT) Temp. Windchill Dew Point Humidity Pressure Visibility Wind Dir Wind Speed Gust Speed Precip Events Conditions
12:52 AM 30.9 °F 24.3 °F 25.0 °F 79% 30.01 in 10.0 mi West 6.9 mph - N/A   Clear
1:52 AM 30.9 °F 25.2 °F 26.1 °F 82% 30.02 in 10.0 mi WNW 5.8 mph - N/A   Clear
2:52 AM 30.0 °F 24.1 °F 26.1 °F 85% 30.04 in 10.0 mi WNW 5.8 mph - N/A   Clear
3:52 AM 28.4 °F 21.2 °F 24.8 °F 86% 30.03 in 10.0 mi WNW 6.9 mph - N/A   Clear
4:52 AM 30.0 °F 24.1 °F 25.0 °F 82% 30.06 in 10.0 mi NW 5.8 mph - N/A   Clear
5:52 AM 28.9 °F 23.9 °F 25.0 °F 85% 30.07 in 10.0 mi NW 4.6 mph - N/A   Clear
6:52 AM 27.0 °F 23.0 °F 24.1 °F 89% 30.09 in 10.0 mi WSW 3.5 mph - N/A   Clear
7:52 AM 27.0 °F 20.5 °F 24.1 °F 89% 30.11 in 8.0 mi West 5.8 mph - N/A   Clear
8:52 AM 34.0 °F 31.0 °F 28.9 °F 82% 30.13 in 10.0 mi WNW 3.5 mph - N/A   Clear
9:52 AM 39.2 °F 35.0 °F 30.2 °F 70% 30.11 in 10.0 mi WNW 5.8 mph - N/A   Clear
10:52 AM 48.0 °F - 32.0 °F 54% 30.13 in 10.0 mi WNW 6.9 mph - N/A   Clear
11:52 AM 52.0 °F - 32.0 °F 47% 30.12 in 10.0 mi West 8.1 mph - N/A   Clear
12:52 PM 54.0 °F - 28.0 °F 37% 30.09 in 10.0 mi WSW 10.4 mph - N/A   Clear
1:52 PM 57.0 °F - 27.0 °F 32% 30.08 in 10.0 mi West 11.5 mph 17.3 mph N/A   Clear
2:52 PM 57.0 °F - 27.0 °F 32% 30.07 in 10.0 mi SW 5.8 mph - N/A   Clear
3:52 PM 57.9 °F - 27.0 °F 31% 30.06 in 10.0 mi West 5.8 mph - N/A   Clear
4:52 PM 57.9 °F - 28.0 °F 32% 30.06 in 9.0 mi SW 5.8 mph - N/A   Clear
5:52 PM 55.0 °F - 30.0 °F 38% 30.07 in 7.0 mi SW 3.5 mph - N/A   Clear
6:52 PM 48.9 °F - 30.9 °F 50% 30.08 in 7.0 mi Calm Calm - N/A   Clear
7:52 PM 44.1 °F 42.5 °F 30.9 °F 60% 30.09 in 7.0 mi South 3.5 mph - N/A   Clear
8:52 PM 42.1 °F 39.2 °F 30.9 °F 65% 30.07 in 7.0 mi SSE 4.6 mph - N/A   Clear
9:52 PM 44.6 °F 40.7 °F 32.0 °F 61% 30.04 in 10.0 mi South 6.9 mph - N/A   Clear
10:52 PM 43.0 °F 41.3 °F 30.9 °F 62% 30.06 in 7.0 mi South 3.5 mph - N/A   Clear
11:52 PM 44.1 °F 41.5 °F 30.9 °F 60% 30.04 in 8.0 mi South 4.6 mph - N/A   Clear